Meath Environmental Platform

Observations

Time Sensor AQI SAQ Temp °C Hum % Pres Pa CO μg/m³ H₂S μg/m³ NO μg/m³ NO₂ μg/m³ O₃ μg/m³ SO₂ μg/m³ CO₂e PPM VOC PPM PM1 μg/m³ PM2.5 μg/m³ PM4 μg/m³ PM10 μg/m³ TPS µm
Tuesday 11 August 2026
15:46 Trim Patrick St 2 37.7 21 69,742 0 0 0.04 14.57 80.59 21.84 2 8.25 9.07
15:46 Trim Market St 3 42 16 67,257 0 0 0 15.1 72.99 6.4 0.71 4.46 4.91
15:45 Trim Patrick St 2 37.7 23 69,752 0 0 0.02 13.89 100.35 23.82 2 8.14 8.96
15:45 Trim Market St 3 41.9 16 67,264 0 0 0 16.72 73.2 5.31 0 3.33 3.66
15:44 Trim Patrick St 2 37.6 21 69,734 0 0 0.04 14.85 99.72 22.72 2.86 9.05 9.96
15:44 Trim Market St 3 41.7 17 67,276 0 0 0 15.74 62.85 5.25 0 3.32 3.65
15:43 Trim Patrick St 2 37.6 22 69,738 0 0 0.04 14.26 91.81 24.02 2 8.98 9.87
15:43 Trim Market St 3 41.6 17 67,266 0 4.45 0 22.94 65.17 4.85 0 3.87 4.26
15:42 Trim Patrick St 2 37.5 21 69,740 0 0 0.06 13.7 80.83 22.52 2 8.22 9.05
15:42 Trim Market St 3 41.5 17 67,226 0 11.02 0 42.42 72.03 4.28 0.71 4.43 4.88
15:41 Trim Patrick St 2 37.5 23 69,715 0 0 0.05 13.96 87.44 22.88 2.86 8.96 9.85
15:41 Trim Market St 3 41.4 17 67,204 0 0 0 21.05 63.93 4.84 0 3.31 3.65
15:40 Trim Patrick St 2 37.4 22 69,715 0 0 0.07 13.76 90.3 24.44 2.86 8.98 9.87
15:40 Trim Market St 3 41.3 17 67,179 0 4.38 0 15.06 79.82 7.66 0.71 3.87 4.26
15:39 Trim Market St 3 41.2 17 67,181 0 0 0 17.86 69.45 5.02 0 3.87 4.26
15:38 Trim Patrick St 2 37.3 22 69,703 0 0 0.07 13.87 72.21 21.58 2 8.17 8.98
15:38 Trim Market St 3 41.1 17 67,157 0 0 0 25.11 63.88 3.87 0.71 4.42 4.86
15:37 Trim Patrick St 2 37.3 22 69,727 0 0 0.07 14.71 110.29 21.87 2.86 9.03 9.93
15:37 Trim Market St 3 41 17 67,157 0 0 0 33.47 52.84 3.25 0 3.31 3.64
15:36 Trim Patrick St 2 37.2 23 69,727 0 0 0.08 12.87 84.13 23.01 2 8.95 9.84